| time (UTC) | temp F | wind direction | speed knots | gust knots | rain 1hr in | rain 24hr in | rain mn in | humidity % | barometer mb |
| 20260906234518 | 93 | 118 | 1.7 | 4.3 | 0.00 | 0.00 | 0.00 | 44 | 1012.5 |
| 20260906233525 | 93 | 44 | 1.7 | 3.5 | 0.00 | 0.00 | 0.00 | 42 | 1012.5 |
| 20260906232531 | 94 | 164 | 2.6 | 3.5 | 0.00 | 0.00 | 0.00 | 41 | 1012.6 |
| 20260906231548 | 94 | 130 | 3.5 | 5.2 | 0.00 | 0.00 | 0.00 | 41 | 1012.6 |
| 20260906230523 | 95 | 171 | 3.5 | 6.1 | 0.00 | 0.00 | 0.00 | 41 | 1012.6 |
| 20260906225520 | 96 | 122 | 3.5 | 6.1 | 0.00 | 0.00 | 0.00 | 40 | 1012.6 |
| 20260906224530 | 0 | 0.0 | 0.0 | 0.00 | 0.00 | 0.00 | 1012.9 | ||
| 20260906223526 | 97 | 1.7 | 1.7 | 0.00 | 0.00 | 0.00 | 38 | 1013.0 | |
| 20260906222523 | 0 | 270 | 2.6 | 3.5 | 0.00 | 0.00 | 0.00 | 1013.1 | |
| 20260906221519 | 0 | 0.0 | 0.0 | 0.00 | 0.00 | 0.00 | 1013.1 | ||
| 20260906220518 | 97 | 231 | 4.3 | 6.1 | 0.00 | 0.00 | 0.00 | 39 | 1013.2 |
| 20260906215524 | 97 | 208 | 4.3 | 6.1 | 0.00 | 0.00 | 0.00 | 39 | 1013.4 |
| 20260906214521 | 97 | 245 | 2.6 | 5.2 | 0.00 | 0.00 | 0.00 | 41 | 1013.4 |
| 20260906213522 | 95 | 209 | 2.6 | 4.3 | 0.00 | 0.00 | 0.00 | 43 | 1013.6 |
| 20260906212533 | 94 | 206 | 3.5 | 5.2 | 0.00 | 0.00 | 0.00 | 45 | 1013.8 |
| 20260906211529 | 96 | 207 | 3.5 | 4.3 | 0.00 | 0.00 | 0.00 | 43 | 1013.8 |
| 20260906210524 | 97 | 186 | 3.5 | 5.2 | 0.00 | 0.00 | 0.00 | 42 | 1013.9 |
| 20260906205520 | 96 | 243 | 3.5 | 5.2 | 0.00 | 0.00 | 0.00 | 44 | 1014.0 |
| 20260906204532 | 97 | 197 | 3.5 | 7.0 | 0.00 | 0.00 | 0.00 | 43 | 1014.3 |
| 20260906203628 | 97 | 219 | 3.5 | 5.2 | 0.00 | 0.00 | 0.00 | 42 | 1014.5 |
| 20260906202523 | 97 | 222 | 2.6 | 4.3 | 0.00 | 0.00 | 0.00 | 43 | 1014.5 |
| 20260906201519 | 96 | 207 | 3.5 | 6.1 | 0.00 | 0.00 | 0.00 | 43 | 1014.5 |
| 20260906200520 | 94 | 145 | 4.3 | 6.1 | 0.00 | 0.00 | 0.00 | 46 | 1014.5 |
| 20260906195526 | 99 | 187 | 4.3 | 6.1 | 0.00 | 0.00 | 0.00 | 39 | 1014.7 |
| 20260906194522 | 99 | 165 | 4.3 | 7.8 | 0.00 | 0.00 | 0.00 | 40 | 1014.7 |
| 20260906193539 | 93 | 159 | 5.2 | 6.1 | 0.00 | 0.00 | 0.00 | 44 | 1014.7 |
| 20260906192519 | 96 | 163 | 4.3 | 6.1 | 0.00 | 0.00 | 0.00 | 42 | 1014.8 |
| 20260906191530 | 95 | 188 | 2.6 | 5.2 | 0.00 | 0.00 | 0.00 | 44 | 1014.8 |
| 20260906190526 | 92 | 128 | 4.3 | 6.1 | 0.00 | 0.00 | 0.00 | 48 | 1014.8 |
| 20260906185522 | 92 | 210 | 2.6 | 4.3 | 0.00 | 0.00 | 0.00 | 46 | 1015.0 |
| 20260906184518 | 95 | 274 | 3.5 | 5.2 | 0.00 | 0.00 | 0.00 | 43 | 1015.2 |
| 20260906183529 | 0 | 135 | 4.3 | 4.3 | 0.00 | 0.00 | 0.00 | 1015.2 | |
| 20260906182525 | 96 | 0.9 | 0.9 | 0.00 | 0.00 | 0.00 | 43 | 1015.4 | |
| 20260906181521 | 93 | 97 | 2.6 | 4.3 | 0.00 | 0.00 | 0.00 | 45 | 1015.6 |
| 20260906180521 | 94 | 284 | 2.6 | 4.3 | 0.00 | 0.00 | 0.00 | 44 | 1015.7 |
| 20260906175548 | 92 | 315 | 3.5 | 7.0 | 0.00 | 0.00 | 0.00 | 48 | 1016.0 |
| 20260906174542 | 91 | 212 | 2.6 | 3.5 | 0.00 | 0.00 | 0.00 | 51 | 1016.2 |
| 20260906173518 | 91 | 5 | 2.6 | 5.2 | 0.00 | 0.00 | 0.00 | 52 | 1016.4 |
| 20260906172529 | 90 | 348 | 3.5 | 5.2 | 0.00 | 0.00 | 0.00 | 53 | 1016.5 |
| 20260906171525 | 90 | 211 | 2.6 | 4.3 | 0.00 | 0.00 | 0.00 | 53 | 1016.6 |
| 20260906170521 | 89 | 318 | 2.6 | 5.2 | 0.00 | 0.00 | 0.00 | 53 | 1016.7 |
| 20260906165528 | 88 | 346 | 3.5 | 5.2 | 0.00 | 0.00 | 0.00 | 55 | 1016.7 |
| 20260906164529 | 87 | 333 | 3.5 | 5.2 | 0.00 | 0.00 | 0.00 | 56 | 1016.8 |
| 20260906163521 | 87 | 339 | 1.7 | 3.5 | 0.00 | 0.00 | 0.00 | 56 | 1016.8 |
| 20260906162542 | 86 | 176 | 2.6 | 4.3 | 0.00 | 0.00 | 0.00 | 58 | 1016.7 |
| 20260906161533 | 87 | 335 | 3.5 | 5.2 | 0.00 | 0.00 | 0.00 | 56 | 1016.7 |
| 20260906160550 | 87 | 304 | 1.7 | 4.3 | 0.00 | 0.00 | 0.00 | 58 | 1016.7 |
| 20260906155530 | 85 | 311 | 2.6 | 3.5 | 0.00 | 0.00 | 0.00 | 61 | 1016.8 |
| 20260906154525 | 85 | 295 | 1.7 | 2.6 | 0.00 | 0.00 | 0.00 | 62 | 1016.6 |
| 20260906153520 | 85 | 62 | 1.7 | 3.5 | 0.00 | 0.00 | 0.00 | 62 | 1016.5 |
| 20260906152532 | 85 | 211 | 0.9 | 3.5 | 0.00 | 0.00 | 0.00 | 64 | 1016.3 |
| 20260906151527 | 83 | 147 | 1.7 | 3.5 | 0.00 | 0.00 | 0.00 | 67 | 1016.3 |
| 20260906150544 | 82 | 160 | 2.6 | 3.5 | 0.00 | 0.00 | 0.00 | 69 | 1016.3 |
| 20260906145541 | 82 | 124 | 3.5 | 4.3 | 0.00 | 0.00 | 0.00 | 70 | 1016.2 |
| 20260906144526 | 81 | 143 | 3.5 | 5.2 | 0.00 | 0.00 | 0.00 | 71 | 1016.3 |
| 20260906143529 | 82 | 141 | 3.5 | 6.1 | 0.00 | 0.00 | 0.00 | 69 | 1016.1 |
| 20260906142523 | 82 | 207 | 0.9 | 2.6 | 0.00 | 0.00 | 0.00 | 69 | 1016.1 |
| 20260906141520 | 82 | 225 | 0.9 | 2.6 | 0.00 | 0.00 | 0.00 | 69 | 1016.1 |
| 20260906140522 | 82 | 194 | 1.7 | 3.5 | 0.00 | 0.00 | 0.00 | 67 | 1016.1 |
| 20260906135522 | 82 | 191 | 0.9 | 2.6 | 0.00 | 0.00 | 0.00 | 67 | 1015.9 |
| 20260906134519 | 82 | 182 | 2.6 | 3.5 | 0.00 | 0.00 | 0.00 | 67 | 1015.6 |
| 20260906133527 | 82 | 201 | 0.9 | 2.6 | 0.00 | 0.00 | 0.00 | 67 | 1015.5 |
| 20260906132519 | 83 | 117 | 1.7 | 3.5 | 0.00 | 0.00 | 0.00 | 66 | 1015.3 |
| 20260906131539 | 81 | 164 | 0.9 | 2.6 | 0.00 | 0.00 | 0.00 | 70 | 1015.2 |
| 20260906130531 | 78 | 0.0 | 0.9 | 0.00 | 0.00 | 0.00 | 76 | 1015.0 | |
| 20260906125525 | 77 | 0.0 | 0.0 | 0.00 | 0.00 | 0.00 | 79 | 1015.0 | |
| 20260906124616 | 76 | 0.0 | 0.0 | 0.00 | 0.00 | 0.00 | 80 | 1014.8 | |
| 20260906123533 | 76 | 0.0 | 0.0 | 0.00 | 0.00 | 0.00 | 81 | 1014.7 | |
| 20260906122532 | 76 | 0.0 | 0.0 | 0.00 | 0.00 | 0.00 | 81 | 1014.7 | |
| 20260906121533 | 76 | 0.0 | 0.0 | 0.00 | 0.00 | 0.00 | 79 | 1014.6 | |
| 20260906120545 | 77 | 0.0 | 0.0 | 0.00 | 0.00 | 0.00 | 78 | 1014.5 | |
| 20260906115540 | 77 | 0.0 | 0.0 | 0.00 | 0.00 | 0.00 | 78 | 1014.3 | |
| 20260906114524 | 77 | 0.0 | 0.0 | 0.00 | 0.00 | 0.00 | 78 | 1014.1 | |
| 20260906113523 | 77 | 0.0 | 0.0 | 0.00 | 0.00 | 0.00 | 79 | 1013.9 | |
| 20260906112616 | 77 | 0.0 | 0.0 | 0.00 | 0.00 | 0.00 | 79 | 1013.9 | |
| 20260906111543 | 77 | 0.0 | 0.0 | 0.00 | 0.00 | 0.00 | 79 | 1013.8 | |
| 20260906110523 | 77 | 0.0 | 0.0 | 0.00 | 0.00 | 0.00 | 78 | 1013.6 | |
| 20260906105542 | 77 | 0.0 | 0.0 | 0.00 | 0.00 | 0.00 | 78 | 1013.6 | |
| 20260906104519 | 77 | 0.0 | 0.0 | 0.00 | 0.00 | 0.00 | 79 | 1013.7 | |
| 20260906103527 | 76 | 0.0 | 0.0 | 0.00 | 0.00 | 0.00 | 80 | 1013.8 | |
| 20260906102521 | 77 | 0.0 | 0.0 | 0.00 | 0.00 | 0.00 | 79 | 1013.7 | |
| 20260906101521 | 77 | 0.0 | 0.0 | 0.00 | 0.00 | 0.00 | 78 | 1013.7 | |
| 20260906100532 | 77 | 0.0 | 0.0 | 0.00 | 0.00 | 0.00 | 78 | 1013.7 | |
| 20260906095527 | 77 | 0.0 | 0.0 | 0.00 | 0.00 | 0.00 | 77 | 1013.6 | |
| 20260906094520 | 78 | 0.0 | 0.0 | 0.00 | 0.00 | 0.00 | 75 | 1013.7 | |
| 20260906093531 | 78 | 0.0 | 0.0 | 0.00 | 0.00 | 0.00 | 75 | 1013.7 | |
| 20260906092532 | 79 | 0.0 | 0.0 | 0.00 | 0.00 | 0.00 | 74 | 1013.6 | |
| 20260906091526 | 79 | 0.0 | 0.0 | 0.00 | 0.00 | 0.00 | 74 | 1013.6 | |
| 20260906090520 | 79 | 204 | 0.9 | 3.5 | 0.00 | 0.00 | 0.00 | 73 | 1013.7 |
| 20260906085524 | 79 | 212 | 0.9 | 1.7 | 0.00 | 0.00 | 0.00 | 73 | 1013.6 |
| 20260906084523 | 80 | 221 | 0.9 | 2.6 | 0.00 | 0.00 | 0.00 | 72 | 1013.4 |
| 20260906083534 | 80 | 270 | 0.0 | 2.6 | 0.00 | 0.00 | 0.00 | 72 | 1013.6 |
| 20260906082530 | 80 | 189 | 2.6 | 4.3 | 0.00 | 0.00 | 0.00 | 71 | 1013.6 |
| 20260906081524 | 80 | 215 | 0.9 | 3.5 | 0.00 | 0.00 | 0.00 | 71 | 1013.6 |
| 20260906080616 | 80 | 215 | 1.7 | 3.5 | 0.00 | 0.00 | 0.00 | 71 | 1013.7 |
| 20260906075550 | 81 | 206 | 1.7 | 2.6 | 0.00 | 0.00 | 0.00 | 71 | 1014.0 |
| 20260906074545 | 81 | 203 | 0.0 | 2.6 | 0.00 | 0.00 | 0.00 | 70 | 1014.2 |
| 20260906073522 | 81 | 199 | 1.7 | 2.6 | 0.00 | 0.00 | 0.00 | 69 | 1014.3 |
| 20260906072528 | 82 | 187 | 1.7 | 3.5 | 0.00 | 0.00 | 0.00 | 69 | 1014.3 |
| 20260906071520 | 82 | 190 | 2.6 | 3.5 | 0.00 | 0.00 | 0.00 | 68 | 1014.4 |
| 20260906070542 | 82 | 175 | 2.6 | 3.5 | 0.00 | 0.00 | 0.00 | 69 | 1014.5 |
| 20260906065532 | 82 | 190 | 2.6 | 4.3 | 0.00 | 0.00 | 0.00 | 68 | 1014.5 |
| 20260906064527 | 82 | 178 | 3.5 | 5.2 | 0.00 | 0.00 | 0.00 | 68 | 1014.5 |
| 20260906063523 | 83 | 199 | 3.5 | 4.3 | 0.00 | 0.00 | 0.00 | 67 | 1014.7 |
| 20260906062520 | 83 | 179 | 2.6 | 3.5 | 0.00 | 0.00 | 0.00 | 67 | 1014.7 |
| 20260906061532 | 83 | 175 | 2.6 | 3.5 | 0.00 | 0.00 | 0.00 | 66 | 1014.7 |
| 20260906060527 | 83 | 180 | 2.6 | 4.3 | 0.00 | 0.00 | 0.00 | 65 | 1014.8 |
| 20260906055529 | 84 | 169 | 3.5 | 5.2 | 0.00 | 0.00 | 0.00 | 65 | 1014.7 |
| 20260906054544 | 84 | 167 | 4.3 | 7.0 | 0.00 | 0.00 | 0.00 | 64 | 1014.5 |
| 20260906053540 | 84 | 149 | 4.3 | 7.8 | 0.00 | 0.00 | 0.00 | 63 | 1014.5 |
| 20260906052526 | 84 | 173 | 4.3 | 7.8 | 0.00 | 0.00 | 0.00 | 62 | 1014.6 |
| 20260906051521 | 85 | 183 | 3.5 | 4.3 | 0.00 | 0.00 | 0.00 | 61 | 1014.7 |
| 20260906050518 | 85 | 173 | 4.3 | 7.8 | 0.00 | 0.00 | 0.00 | 61 | 1014.7 |
| 20260906045519 | 85 | 154 | 4.3 | 6.1 | 0.00 | 0.00 | 0.00 | 61 | 1014.8 |
| 20260906044519 | 85 | 157 | 3.5 | 5.2 | 0.00 | 0.00 | 0.00 | 60 | 1014.7 |
| 20260906043521 | 85 | 140 | 4.3 | 5.2 | 0.00 | 0.00 | 0.00 | 60 | 1014.7 |
| 20260906042532 | 86 | 147 | 3.5 | 5.2 | 0.00 | 0.00 | 0.00 | 58 | 1014.7 |
| 20260906041528 | 86 | 134 | 6.1 | 7.8 | 0.00 | 0.00 | 0.00 | 58 | 1014.7 |
| 20260906040523 | 87 | 129 | 6.1 | 7.8 | 0.00 | 0.00 | 0.00 | 57 | 1014.7 |
| 20260906035521 | 87 | 121 | 5.2 | 8.7 | 0.00 | 0.00 | 0.00 | 55 | 1014.5 |
| 20260906034527 | 88 | 121 | 5.2 | 6.1 | 0.00 | 0.00 | 0.00 | 54 | 1014.5 |
| 20260906033528 | 88 | 126 | 5.2 | 6.1 | 0.00 | 0.00 | 0.00 | 54 | 1014.3 |
| 20260906032529 | 88 | 119 | 5.2 | 6.1 | 0.00 | 0.00 | 0.00 | 53 | 1014.1 |
| 20260906031526 | 88 | 130 | 6.1 | 8.7 | 0.00 | 0.00 | 0.00 | 52 | 1013.9 |
| 20260906030523 | 89 | 132 | 5.2 | 7.0 | 0.00 | 0.00 | 0.00 | 51 | 1013.8 |
| 20260906025536 | 89 | 117 | 5.2 | 7.0 | 0.00 | 0.00 | 0.00 | 51 | 1013.6 |
| 20260906024517 | 89 | 124 | 6.1 | 7.8 | 0.00 | 0.00 | 0.00 | 50 | 1013.2 |
| 20260906023533 | 89 | 112 | 6.1 | 7.0 | 0.00 | 0.00 | 0.00 | 49 | 1012.9 |
| 20260906022548 | 90 | 115 | 7.0 | 8.7 | 0.00 | 0.00 | 0.00 | 48 | 1012.8 |
| 20260906021529 | 90 | 139 | 5.2 | 7.0 | 0.00 | 0.00 | 0.00 | 46 | 1012.6 |
| 20260906020529 | 90 | 140 | 4.3 | 7.0 | 0.00 | 0.00 | 0.00 | 44 | 1012.5 |
| 20260906015524 | 89 | 145 | 5.2 | 7.0 | 0.00 | 0.00 | 0.00 | 43 | 1012.5 |
| 20260906014540 | 89 | 182 | 2.6 | 2.6 | 0.00 | 0.00 | 0.00 | 42 | 1012.4 |
| 20260906013522 | 89 | 174 | 1.7 | 2.6 | 0.00 | 0.00 | 0.00 | 41 | 1012.3 |
| 20260906012521 | 90 | 168 | 2.6 | 3.5 | 0.00 | 0.00 | 0.00 | 41 | 1012.1 |
| 20260906011528 | 90 | 163 | 2.6 | 2.6 | 0.00 | 0.00 | 0.00 | 40 | 1012.1 |
| 20260906010524 | 91 | 155 | 2.6 | 3.5 | 0.00 | 0.00 | 0.00 | 39 | 1012.1 |
| 20260906005519 | 92 | 146 | 2.6 | 3.5 | 0.00 | 0.00 | 0.00 | 38 | 1012.1 |
| 20260906004520 | 93 | 121 | 2.6 | 4.3 | 0.00 | 0.00 | 0.00 | 37 | 1011.9 |
| 20260906003532 | 94 | 120 | 3.5 | 4.3 | 0.00 | 0.00 | 0.00 | 36 | 1011.9 |
| 20260906002527 | 95 | 119 | 3.5 | 5.2 | 0.00 | 0.00 | 0.00 | 35 | 1012.0 |
| 20260906001544 | 95 | 144 | 3.5 | 4.3 | 0.00 | 0.00 | 0.00 | 35 | 1012.0 |
| 20260906000519 | 95 | 131 | 4.3 | 6.1 | 0.00 | 0.00 | 0.00 | 35 | 1011.9 |
| 20260905235531 | 95 | 126 | 4.3 | 7.0 | 0.00 | 0.00 | 0.00 | 34 | 1011.9 |